Elmira, NY

5:22 AM EDT on July 21, 2017 (GMT -0400)
Elmira-Corning Regional

Weather History for KELM - September, 2013

Change the Weather History Date:

Wednesday, September 11, 2013

  Actual Average Record
Temperature  
Mean Temperature 78 °F -  
Max Temperature 93 °F 75 °F 95 °F (1964)
Min Temperature 64 °F 48 °F 33 °F (1967)
Cooling Degree Days 12    
Growing Degree Days 28 (Base 50)    
Moisture  
Dew Point 67 °F    
Average Humidity 86    
Maximum Humidity 100    
Minimum Humidity 45    
Precipitation  
Precipitation 0.23 in - - ()
Sea Level Pressure  
Sea Level Pressure 30.06 in    
Wind  
Wind Speed 1 mph (WSW)    
Max Wind Speed 14 mph    
Max Gust Speed 38 mph    
Visibility 4 miles    
Events Fog , Rain , Thunderstorm    
Averages and records for this station are not official NWS values.
T = Trace of Precipitation, MM = Missing Value Source: NWS Daily Summary

Daily Weather History Graph

Daily Weather History Graph

Search for Another Location

Airport or City:

Trip Planner

Search our weather history database for the weather conditions in past years. The results will help you decide how hot, cold, wet, or windy it might be!

Date:

Astronomy

Sep. 11, 2013 Rise Set
Actual Time 6:43 AM EDT 7:23 PM EDT
Civil Twilight 6:15 AM EDT 7:51 PM EDT
Nautical Twilight 5:41 AM EDT 8:25 PM EDT
Astronomical Twilight 5:07 AM EDT 8:59 PM EDT
Moon 1:16 PM EDT (9/11) 11:10 PM EDT (9/11)
Length of Visible Light 13h 36m
Length of Day
12h 40m
Waxing Crescent, 38% of the Moon is Illuminated
Sep 11
Waxing Crescent
Sep 12
First Quarter
Sep 19
Full
Sep 26
Last Quarter
Oct 4
New

Hourly Weather History & Observations

Time (EDT) Temp. Heat Index Dew Point Humidity Pressure Visibility Wind Dir Wind Speed Gust Speed Precip Events Conditions
12:53 AM 72.0 °F - 69.1 °F 91% 30.06 in 5.0 mi Calm Calm - N/A   Clear
1:46 AM 69.8 °F - 68.0 °F 94% 30.08 in 1.5 mi Calm Calm - N/A   Clear
1:53 AM 70.0 °F - 68.0 °F 93% 30.06 in 0.8 mi Calm Calm - N/A   Clear
1:59 AM 71.6 °F - 68.0 °F 88% 30.08 in 2.0 mi Calm Calm - N/A   Clear
2:25 AM 71.6 °F - 66.2 °F 83% 30.08 in 3.0 mi Calm Calm - N/A   Clear
2:53 AM 69.1 °F - 66.9 °F 93% 30.06 in 3.0 mi Calm Calm - N/A   Clear
2:56 AM 69.8 °F - 68.0 °F 94% 30.08 in 1.0 mi Calm Calm - N/A   Mist
3:02 AM 69.8 °F - 68.0 °F 94% 30.08 in 0.5 mi Calm Calm - N/A Fog Fog
3:09 AM 69.8 °F - 66.2 °F 88% 30.08 in 0.2 mi Calm Calm - N/A Fog Fog
3:17 AM 68.0 °F - 66.2 °F 94% 30.08 in 1.0 mi Calm Calm - N/A   Mist
3:19 AM 68.0 °F - 66.2 °F 94% 30.08 in 2.5 mi Calm Calm - N/A   Partly Cloudy
3:26 AM 68.0 °F - 66.2 °F 94% 30.08 in 3.0 mi Calm Calm - N/A   Partly Cloudy
3:38 AM 68.0 °F - 66.2 °F 94% 30.07 in 1.5 mi Calm Calm - N/A   Clear
3:48 AM 68.0 °F - 66.2 °F 94% 30.07 in 0.5 mi Calm Calm - N/A Fog Fog
3:53 AM 68.0 °F - 64.9 °F 90% 30.05 in 1.5 mi Calm Calm - N/A   Partly Cloudy
3:56 AM 68.0 °F - 64.4 °F 88% 30.07 in 3.0 mi Calm Calm - N/A   Partly Cloudy
3:59 AM 66.2 °F - 64.4 °F 94% 30.07 in 1.0 mi Calm Calm - N/A   Mist
4:04 AM 66.2 °F - 64.4 °F 94% 30.08 in 0.2 mi Calm Calm - N/A Fog Fog
4:15 AM 66.2 °F - 66.2 °F 100% 30.08 in 0.2 mi Calm Calm - N/A Fog Fog
4:29 AM 66.2 °F - 64.4 °F 94% 30.07 in 0.5 mi Calm Calm - N/A Fog Fog
4:31 AM 66.2 °F - 64.4 °F 94% 30.07 in 0.2 mi Calm Calm - N/A Fog Fog
4:49 AM 66.2 °F - 64.4 °F 94% 30.08 in 1.0 mi Calm Calm - N/A   Mist
4:51 AM 66.2 °F - 64.4 °F 94% 30.08 in 2.5 mi Calm Calm - N/A   Scattered Clouds
4:53 AM 66.9 °F - 64.9 °F 93% 30.06 in 2.0 mi Calm Calm - N/A   Scattered Clouds
5:00 AM 66.2 °F - 64.4 °F 94% 30.08 in 1.2 mi Calm Calm - N/A   Scattered Clouds
5:07 AM 66.2 °F - 64.4 °F 94% 30.08 in 3.0 mi Calm Calm - N/A   Partly Cloudy
5:33 AM 66.2 °F - 64.4 °F 94% 30.08 in 1.8 mi Calm Calm - N/A   Clear
5:38 AM 66.2 °F - 64.4 °F 94% 30.09 in 0.5 mi Calm Calm - N/A Fog Fog
5:48 AM 66.2 °F - 64.4 °F 94% 30.09 in 0.2 mi Calm Calm - N/A Fog Fog
5:53 AM 64.9 °F - 64.0 °F 97% 30.07 in 0.2 mi Calm Calm - N/A Fog Fog
6:03 AM 66.2 °F - 64.4 °F 94% 30.09 in 1.0 mi Calm Calm - N/A   Mist
6:29 AM 66.2 °F - 64.4 °F 94% 30.10 in 2.0 mi Calm Calm - N/A   Partly Cloudy
6:53 AM 66.0 °F - 64.0 °F 93% 30.09 in 2.0 mi Calm Calm - N/A   Clear
7:00 AM 66.2 °F - 64.4 °F 94% 30.11 in 3.0 mi Calm Calm - N/A   Clear
7:12 AM 66.2 °F - 64.4 °F 94% 30.11 in 3.0 mi Calm Calm - N/A   Mostly Cloudy
7:19 AM 66.2 °F - 64.4 °F 94% 30.11 in 3.0 mi Calm Calm - N/A   Mostly Cloudy
7:53 AM 69.1 °F - 68.0 °F 96% 30.09 in 3.0 mi Calm Calm - N/A   Overcast
8:00 AM 69.8 °F - 68.0 °F 94% 30.11 in 3.0 mi Calm Calm - N/A   Overcast
8:17 AM 73.4 °F - 69.8 °F 88% 30.11 in 3.0 mi Calm Calm - N/A   Scattered Clouds
8:53 AM 75.9 °F - 71.1 °F 85% 30.09 in 3.0 mi Calm Calm - N/A   Haze
9:53 AM 82.0 °F 87.4 °F 73.0 °F 74% 30.09 in 3.0 mi SW 5.8 mph - N/A   Haze
10:53 AM 86.0 °F 92.2 °F 72.0 °F 63% 30.06 in 6.0 mi SW 10.4 mph - N/A   Haze
11:53 AM 88.0 °F 93.8 °F 71.1 °F 57% 30.05 in 7.0 mi SSW 6.9 mph - N/A   Clear
12:53 PM 91.0 °F 95.6 °F 69.1 °F 48% 30.03 in 9.0 mi WSW 11.5 mph - N/A   Clear
1:53 PM 91.9 °F 96.9 °F 69.1 °F 47% 30.01 in 9.0 mi West 10.4 mph - N/A   Partly Cloudy
2:19 PM 91.4 °F 95.4 °F 68.0 °F 46% 30.01 in 9.0 mi WSW 12.7 mph - N/A Thunderstorm Partly Cloudy
2:34 PM 89.6 °F 94.7 °F 69.8 °F 52% 30.00 in 8.0 mi SW 6.9 mph - N/A   Partly Cloudy
2:53 PM 91.9 °F 95.9 °F 68.0 °F 45% 29.98 in 9.0 mi West 10.4 mph - N/A Thunderstorm Scattered Clouds
3:32 PM 82.4 °F 83.9 °F 64.4 °F 54% 30.00 in 10.0 mi NW 13.8 mph 26.5 mph 0.00 in Rain , Thunderstorm Light Thunderstorms and Rain
3:53 PM 82.0 °F 84.5 °F 66.9 °F 60% 29.98 in 10.0 mi WNW 5.8 mph - 0.00 in Rain , Thunderstorm Light Thunderstorms and Rain
4:48 PM 71.6 °F - 66.2 °F 83% 30.04 in 2.0 mi SSW 13.8 mph 38.0 mph 0.06 in Rain , Thunderstorm Heavy Thunderstorms and Rain
4:53 PM 72.0 °F - 64.9 °F 78% 30.01 in 3.0 mi SSW 13.8 mph 34.5 mph 0.07 in Rain , Thunderstorm Thunderstorms and Rain
5:28 PM 73.4 °F - 66.2 °F 78% 30.02 in 9.0 mi SW 6.9 mph - 0.04 in Rain Light Rain
5:53 PM 73.0 °F - 66.0 °F 79% 30.01 in 10.0 mi West 6.9 mph - 0.04 in   Clear
6:28 PM 71.6 °F - 66.2 °F 83% 30.03 in 10.0 mi SW 4.6 mph - N/A Thunderstorm Clear
6:43 PM 71.6 °F - 66.2 °F 83% 30.03 in 9.0 mi WNW 4.6 mph - N/A   Scattered Clouds
6:53 PM 72.0 °F - 68.0 °F 87% 30.01 in 8.0 mi Calm Calm - N/A   Scattered Clouds
7:53 PM 71.1 °F - 68.0 °F 90% 30.04 in 7.0 mi Calm Calm - N/A   Mostly Cloudy
8:53 PM 70.0 °F - 68.0 °F 93% 30.04 in 6.0 mi West 5.8 mph - 0.01 in Rain Light Rain
9:12 PM 71.6 °F - 68.0 °F 88% 30.06 in 5.0 mi Calm Calm - 0.01 in Rain , Thunderstorm Light Rain
9:53 PM 70.0 °F - 68.0 °F 93% 30.01 in 4.0 mi SSE 3.5 mph - 0.11 in Rain , Thunderstorm Light Rain
10:07 PM 69.8 °F - 68.0 °F 94% 30.03 in 6.0 mi SW 4.6 mph - 0.00 in   Partly Cloudy
10:53 PM 70.0 °F - 66.9 °F 90% 30.00 in 8.0 mi South 4.6 mph - 0.00 in   Mostly Cloudy
11:53 PM 69.1 °F - 66.9 °F 93% 29.96 in 6.0 mi Calm Calm - 0.00 in Rain Light Rain